| time (UTC) | temp F | wind direction | speed MPH | gust MPH | rain 1hr in | rain 24hr in | rain mn in | humidity % | barometer mb |
| 20260507005505 | 66 | 113 | 0.0 | 0.0 | 0.00 | 0.01 | 0.01 | 86 | 1009.6 |
| 20260507005004 | 66 | 113 | 0.0 | 0.0 | 0.00 | 0.01 | 0.01 | 86 | 1009.6 |
| 20260507004504 | 67 | 113 | 0.0 | 0.0 | 0.00 | 0.01 | 0.01 | 85 | 1009.4 |
| 20260507004004 | 67 | 113 | 0.0 | 0.0 | 0.00 | 0.01 | 0.01 | 84 | 1009.3 |
| 20260507002003 | 68 | 113 | 0.0 | 0.0 | 0.00 | 0.01 | 0.01 | 83 | 1009.1 |
| 20260507001504 | 68 | 114 | 0.0 | 0.0 | 0.00 | 0.01 | 0.01 | 82 | 1009.2 |
| 20260507001004 | 69 | 114 | 0.0 | 1.0 | 0.00 | 0.01 | 0.01 | 82 | 1009.1 |
| 20260507000505 | 69 | 113 | 0.0 | 3.0 | 0.00 | 0.01 | 0.01 | 81 | 1009.1 |
| 20260507000005 | 69 | 141 | 0.0 | 3.0 | 0.00 | 0.01 | 0.01 | 81 | 1009.1 |
| 20260506235504 | 69 | 146 | 0.0 | 1.0 | 0.00 | 0.01 | 0.01 | 81 | 1009.0 |
| 20260506235004 | 69 | 94 | 0.0 | 3.0 | 0.00 | 0.01 | 0.01 | 80 | 1009.0 |
| 20260506234504 | 70 | 139 | 0.0 | 3.0 | 0.00 | 0.01 | 0.01 | 80 | 1008.9 |
| 20260506234005 | 70 | 129 | 0.0 | 3.0 | 0.00 | 0.01 | 0.01 | 80 | 1008.9 |
| 20260506232505 | 71 | 346 | 1.0 | 3.0 | 0.00 | 0.01 | 0.01 | 78 | 1008.8 |
| 20260506232004 | 71 | 192 | 1.0 | 3.0 | 0.00 | 0.01 | 0.01 | 78 | 1008.8 |
| 20260506231505 | 71 | 116 | 1.0 | 6.0 | 0.00 | 0.01 | 0.01 | 78 | 1008.9 |
| 20260506231004 | 71 | 233 | 1.0 | 6.0 | 0.00 | 0.01 | 0.01 | 77 | 1008.9 |
| 20260506230504 | 71 | 223 | 1.0 | 10.0 | 0.00 | 0.01 | 0.01 | 77 | 1008.9 |
| 20260506230005 | 71 | 124 | 2.0 | 10.0 | 0.00 | 0.01 | 0.01 | 77 | 1008.9 |
| 20260506225504 | 71 | 170 | 1.0 | 10.0 | 0.00 | 0.01 | 0.01 | 77 | 1009.0 |
| 20260506225004 | 71 | 126 | 2.0 | 5.0 | 0.00 | 0.01 | 0.01 | 76 | 1008.9 |
| 20260506224504 | 71 | 175 | 1.0 | 5.0 | 0.00 | 0.01 | 0.01 | 76 | 1008.9 |
| 20260506224003 | 71 | 195 | 1.0 | 7.0 | 0.00 | 0.01 | 0.01 | 76 | 1008.9 |
| 20260506223503 | 72 | 203 | 2.0 | 7.0 | 0.00 | 0.01 | 0.01 | 76 | 1008.8 |
| 20260506223004 | 72 | 229 | 2.0 | 7.0 | 0.00 | 0.01 | 0.01 | 76 | 1008.9 |
| 20260506222504 | 72 | 114 | 1.0 | 7.0 | 0.00 | 0.01 | 0.01 | 76 | 1008.8 |
| 20260506221504 | 72 | 211 | 3.0 | 9.0 | 0.00 | 0.01 | 0.01 | 76 | 1008.9 |
| 20260506221004 | 72 | 192 | 2.0 | 9.0 | 0.00 | 0.01 | 0.01 | 76 | 1008.9 |
| 20260506220505 | 72 | 181 | 2.0 | 9.0 | 0.00 | 0.01 | 0.01 | 76 | 1008.7 |
| 20260506215006 | 72 | 219 | 3.0 | 14.0 | 0.00 | 0.01 | 0.01 | 75 | 1008.8 |
| 20260506214506 | 72 | 165 | 2.0 | 12.0 | 0.00 | 0.01 | 0.01 | 75 | 1008.6 |
| 20260506214005 | 72 | 158 | 2.0 | 16.0 | 0.00 | 0.01 | 0.01 | 76 | 1008.5 |
| 20260506213504 | 72 | 169 | 4.0 | 17.0 | 0.00 | 0.01 | 0.01 | 76 | 1008.6 |
| 20260506213005 | 72 | 200 | 7.0 | 17.0 | 0.00 | 0.01 | 0.01 | 76 | 1008.7 |
| 20260506212004 | 71 | 326 | 1.0 | 14.0 | 0.00 | 0.01 | 0.01 | 77 | 1008.5 |
| 20260506211504 | 71 | 159 | 3.0 | 14.0 | 0.00 | 0.01 | 0.01 | 77 | 1008.5 |
| 20260506211004 | 71 | 185 | 2.0 | 14.0 | 0.00 | 0.01 | 0.01 | 77 | 1008.5 |
| 20260506210504 | 71 | 129 | 1.0 | 14.0 | 0.00 | 0.01 | 0.01 | 77 | 1008.4 |
| 20260506210004 | 71 | 185 | 4.0 | 14.0 | 0.00 | 0.01 | 0.01 | 77 | 1008.3 |
| 20260506205504 | 71 | 185 | 4.0 | 12.0 | 0.00 | 0.01 | 0.01 | 77 | 1008.4 |
| 20260506205005 | 71 | 237 | 2.0 | 20.0 | 0.00 | 0.01 | 0.01 | 77 | 1008.5 |
| 20260506204504 | 71 | 100 | 2.0 | 20.0 | 0.00 | 0.01 | 0.01 | 77 | 1008.5 |
| 20260506204004 | 71 | 198 | 4.0 | 12.0 | 0.00 | 0.01 | 0.01 | 76 | 1008.3 |
| 20260506203004 | 72 | 219 | 4.0 | 14.0 | 0.00 | 0.01 | 0.01 | 76 | 1008.2 |
| 20260506202505 | 72 | 262 | 2.0 | 14.0 | 0.00 | 0.01 | 0.01 | 75 | 1008.2 |
| 20260506202004 | 72 | 188 | 4.0 | 12.0 | 0.00 | 0.01 | 0.01 | 75 | 1008.4 |
| 20260506201504 | 72 | 194 | 5.0 | 12.0 | 0.00 | 0.01 | 0.01 | 75 | 1008.4 |
| 20260506200504 | 72 | 188 | 3.0 | 14.0 | 0.01 | 0.01 | 0.01 | 75 | 1008.7 |
| 20260506195504 | 72 | 128 | 3.0 | 10.0 | 0.01 | 0.01 | 0.01 | 75 | 1009.0 |
| 20260506195005 | 72 | 156 | 3.0 | 20.0 | 0.01 | 0.01 | 0.01 | 75 | 1009.1 |
| 20260506194505 | 73 | 170 | 4.0 | 20.0 | 0.01 | 0.01 | 0.01 | 75 | 1008.8 |
| 20260506194004 | 73 | 210 | 5.0 | 10.0 | 0.01 | 0.01 | 0.01 | 75 | 1008.6 |
| 20260506193504 | 72 | 169 | 3.0 | 12.0 | 0.01 | 0.01 | 0.01 | 75 | 1008.4 |
| 20260506193004 | 72 | 271 | 2.0 | 14.0 | 0.01 | 0.01 | 0.01 | 75 | 1008.5 |
| 20260506192505 | 72 | 167 | 5.0 | 14.0 | 0.01 | 0.01 | 0.01 | 75 | 1008.7 |
| 20260506192004 | 72 | 204 | 3.0 | 18.0 | 0.01 | 0.01 | 0.01 | 76 | 1008.7 |
| 20260506191504 | 72 | 192 | 2.0 | 18.0 | 0.01 | 0.01 | 0.01 | 76 | 1009.0 |
| 20260506190504 | 72 | 240 | 3.0 | 12.0 | 0.00 | 0.00 | 0.00 | 76 | 1009.4 |
| 20260506190005 | 72 | 172 | 3.0 | 12.0 | 0.00 | 0.00 | 0.00 | 76 | 1009.4 |
| 20260506185504 | 72 | 216 | 4.0 | 12.0 | 0.00 | 0.00 | 0.00 | 77 | 1009.5 |
| 20260506185003 | 71 | 185 | 3.0 | 14.0 | 0.00 | 0.00 | 0.00 | 77 | 1009.3 |
| 20260506184005 | 71 | 170 | 5.0 | 10.0 | 0.00 | 0.00 | 0.00 | 78 | 1009.4 |
| 20260506183504 | 71 | 180 | 2.0 | 9.0 | 0.00 | 0.00 | 0.00 | 79 | 1009.7 |
| 20260506183005 | 70 | 232 | 3.0 | 9.0 | 0.00 | 0.00 | 0.00 | 79 | 1009.7 |
| 20260506182505 | 70 | 174 | 3.0 | 12.0 | 0.00 | 0.00 | 0.00 | 81 | 1009.7 |
| 20260506182004 | 69 | 193 | 3.0 | 12.0 | 0.00 | 0.00 | 0.00 | 81 | 1010.0 |
| 20260506181504 | 69 | 242 | 3.0 | 12.0 | 0.00 | 0.00 | 0.00 | 81 | 1010.3 |
| 20260506181004 | 69 | 158 | 3.0 | 12.0 | 0.00 | 0.00 | 0.00 | 81 | 1010.0 |
| 20260506180504 | 69 | 243 | 5.0 | 12.0 | 0.00 | 0.00 | 0.00 | 81 | 1010.1 |
| 20260506180005 | 69 | 211 | 3.0 | 12.0 | 0.00 | 0.00 | 0.00 | 82 | 1010.3 |
| 20260506175504 | 69 | 196 | 2.0 | 10.0 | 0.00 | 0.00 | 0.00 | 82 | 1010.3 |
| 20260506175004 | 69 | 156 | 1.0 | 10.0 | 0.00 | 0.00 | 0.00 | 83 | 1010.3 |
| 20260506174505 | 69 | 212 | 3.0 | 10.0 | 0.00 | 0.00 | 0.00 | 82 | 1010.0 |
| 20260506174004 | 69 | 254 | 1.0 | 9.0 | 0.00 | 0.00 | 0.00 | 83 | 1010.1 |
| 20260506173505 | 69 | 226 | 1.0 | 9.0 | 0.00 | 0.00 | 0.00 | 83 | 1010.2 |
| 20260506172503 | 69 | 207 | 3.0 | 15.0 | 0.00 | 0.00 | 0.00 | 83 | 1010.2 |
| 20260506171005 | 69 | 233 | 2.0 | 12.0 | 0.00 | 0.00 | 0.00 | 82 | 1010.4 |
| 20260506170503 | 69 | 231 | 2.0 | 12.0 | 0.00 | 0.00 | 0.00 | 81 | 1010.3 |
| 20260506170004 | 68 | 219 | 2.0 | 10.0 | 0.00 | 0.00 | 0.00 | 82 | 1010.7 |
| 20260506165504 | 68 | 191 | 3.0 | 10.0 | 0.00 | 0.00 | 0.00 | 81 | 1010.7 |
| 20260506165004 | 68 | 225 | 1.0 | 10.0 | 0.00 | 0.00 | 0.00 | 80 | 1010.9 |
| 20260506164504 | 68 | 227 | 3.0 | 8.0 | 0.00 | 0.00 | 0.00 | 79 | 1011.1 |
| 20260506164004 | 68 | 282 | 2.0 | 12.0 | 0.00 | 0.00 | 0.00 | 78 | 1011.2 |
| 20260506163504 | 69 | 214 | 2.0 | 18.0 | 0.00 | 0.00 | 0.00 | 77 | 1011.3 |
| 20260506163005 | 70 | 221 | 3.0 | 18.0 | 0.00 | 0.00 | 0.00 | 76 | 1011.5 |
| 20260506162504 | 72 | 192 | 3.0 | 10.0 | 0.00 | 0.00 | 0.00 | 73 | 1011.6 |
| 20260506162004 | 72 | 298 | 2.0 | 8.0 | 0.00 | 0.00 | 0.00 | 71 | 1011.6 |
| 20260506161505 | 73 | 65 | 2.0 | 7.0 | 0.00 | 0.00 | 0.00 | 69 | 1011.5 |
| 20260506160504 | 73 | 132 | 3.0 | 12.0 | 0.00 | 0.00 | 0.00 | 68 | 1011.4 |
| 20260506160005 | 74 | 214 | 3.0 | 13.0 | 0.00 | 0.00 | 0.00 | 67 | 1011.5 |
| 20260506155504 | 74 | 200 | 4.0 | 15.0 | 0.00 | 0.00 | 0.00 | 67 | 1011.7 |
| 20260506155004 | 74 | 162 | 2.0 | 15.0 | 0.00 | 0.00 | 0.00 | 67 | 1011.7 |
| 20260506154505 | 74 | 168 | 4.0 | 15.0 | 0.00 | 0.00 | 0.00 | 67 | 1011.6 |
| 20260506154007 | 74 | 244 | 2.0 | 10.0 | 0.00 | 0.00 | 0.00 | 68 | 1011.7 |
| 20260506153504 | 74 | 157 | 2.0 | 18.0 | 0.00 | 0.00 | 0.00 | 66 | 1011.6 |
| 20260506153004 | 74 | 190 | 6.0 | 18.0 | 0.00 | 0.00 | 0.00 | 64 | 1011.7 |
| 20260506152504 | 74 | 232 | 5.0 | 13.0 | 0.00 | 0.00 | 0.00 | 65 | 1011.6 |
| 20260506151504 | 74 | 203 | 2.0 | 10.0 | 0.00 | 0.00 | 0.00 | 66 | 1011.6 |
| 20260506151004 | 74 | 209 | 2.0 | 8.0 | 0.00 | 0.00 | 0.00 | 67 | 1011.7 |
| 20260506150005 | 73 | 196 | 3.0 | 13.0 | 0.00 | 0.00 | 0.00 | 67 | 1011.7 |
| 20260506145005 | 73 | 203 | 3.0 | 20.0 | 0.00 | 0.00 | 0.00 | 67 | 1011.8 |
| 20260506144504 | 73 | 208 | 4.0 | 20.0 | 0.00 | 0.00 | 0.00 | 66 | 1011.6 |
| 20260506144004 | 74 | 203 | 4.0 | 13.0 | 0.00 | 0.00 | 0.00 | 66 | 1011.6 |
| 20260506143503 | 74 | 237 | 5.0 | 13.0 | 0.00 | 0.00 | 0.00 | 66 | 1011.7 |
| 20260506143004 | 74 | 215 | 3.0 | 16.0 | 0.00 | 0.00 | 0.00 | 66 | 1011.8 |
| 20260506142504 | 74 | 214 | 3.0 | 16.0 | 0.00 | 0.00 | 0.00 | 67 | 1011.8 |
| 20260506142003 | 74 | 193 | 3.0 | 12.0 | 0.00 | 0.00 | 0.00 | 66 | 1011.8 |
| 20260506141504 | 74 | 184 | 2.0 | 12.0 | 0.00 | 0.00 | 0.00 | 67 | 1011.8 |
| 20260506141004 | 74 | 248 | 2.0 | 14.0 | 0.00 | 0.00 | 0.00 | 66 | 1011.8 |
| 20260506140503 | 74 | 202 | 3.0 | 14.0 | 0.00 | 0.00 | 0.00 | 66 | 1011.8 |
| 20260506140004 | 74 | 186 | 5.0 | 14.0 | 0.00 | 0.00 | 0.00 | 66 | 1011.7 |
| 20260506135504 | 73 | 187 | 3.0 | 18.0 | 0.00 | 0.00 | 0.00 | 67 | 1011.7 |
| 20260506135004 | 73 | 225 | 5.0 | 18.0 | 0.00 | 0.00 | 0.00 | 67 | 1011.7 |
| 20260506134504 | 73 | 203 | 7.0 | 18.0 | 0.00 | 0.00 | 0.00 | 66 | 1011.8 |
| 20260506134004 | 73 | 176 | 3.0 | 17.0 | 0.00 | 0.00 | 0.00 | 68 | 1011.9 |
| 20260506133504 | 73 | 227 | 6.0 | 17.0 | 0.00 | 0.00 | 0.00 | 68 | 1011.9 |
| 20260506133004 | 72 | 197 | 3.0 | 16.0 | 0.00 | 0.00 | 0.00 | 69 | 1012.0 |
| 20260506132504 | 72 | 189 | 3.0 | 12.0 | 0.00 | 0.00 | 0.00 | 69 | 1012.1 |
| 20260506132004 | 71 | 183 | 2.0 | 12.0 | 0.00 | 0.00 | 0.00 | 70 | 1012.0 |
| 20260506131504 | 71 | 162 | 4.0 | 16.0 | 0.00 | 0.00 | 0.00 | 70 | 1012.0 |
| 20260506131004 | 71 | 171 | 5.0 | 16.0 | 0.00 | 0.00 | 0.00 | 70 | 1012.0 |
| 20260506130004 | 70 | 278 | 2.0 | 9.0 | 0.00 | 0.00 | 0.00 | 72 | 1012.2 |
| 20260506125505 | 69 | 210 | 2.0 | 12.0 | 0.00 | 0.00 | 0.00 | 73 | 1012.3 |
| 20260506124005 | 68 | 216 | 1.0 | 8.0 | 0.00 | 0.00 | 0.00 | 74 | 1012.3 |
| 20260506123004 | 68 | 237 | 1.0 | 10.0 | 0.00 | 0.00 | 0.00 | 73 | 1012.4 |
| 20260506122504 | 69 | 187 | 2.0 | 10.0 | 0.00 | 0.00 | 0.00 | 73 | 1012.4 |
| 20260506122004 | 69 | 203 | 3.0 | 9.0 | 0.00 | 0.00 | 0.00 | 73 | 1012.3 |
| 20260506121504 | 69 | 212 | 3.0 | 9.0 | 0.00 | 0.00 | 0.00 | 72 | 1012.2 |
| 20260506121004 | 69 | 234 | 2.0 | 12.0 | 0.00 | 0.00 | 0.00 | 72 | 1012.1 |
| 20260506120004 | 68 | 144 | 1.0 | 8.0 | 0.00 | 0.00 | 0.00 | 74 | 1012.2 |
| 20260506115507 | 68 | 193 | 2.0 | 8.0 | 0.00 | 0.00 | 0.00 | 75 | 1012.2 |
| 20260506115004 | 67 | 195 | 2.0 | 8.0 | 0.00 | 0.00 | 0.00 | 76 | 1012.2 |
| 20260506114505 | 66 | 208 | 1.0 | 3.0 | 0.00 | 0.00 | 0.00 | 76 | 1012.1 |
| 20260506114005 | 66 | 225 | 2.0 | 7.0 | 0.00 | 0.00 | 0.00 | 76 | 1012.2 |
| 20260506113504 | 66 | 214 | 2.0 | 7.0 | 0.00 | 0.00 | 0.00 | 76 | 1012.2 |
| 20260506113004 | 66 | 228 | 2.0 | 7.0 | 0.00 | 0.00 | 0.00 | 76 | 1012.1 |
| 20260506112505 | 66 | 220 | 2.0 | 12.0 | 0.00 | 0.00 | 0.00 | 76 | 1012.1 |
| 20260506111503 | 66 | 196 | 3.0 | 9.0 | 0.00 | 0.00 | 0.00 | 76 | 1011.9 |
| 20260506110504 | 65 | 207 | 2.0 | 5.0 | 0.00 | 0.00 | 0.00 | 78 | 1012.2 |
| 20260506105503 | 64 | 223 | 1.0 | 5.0 | 0.00 | 0.00 | 0.00 | 79 | 1012.1 |
| 20260506105004 | 64 | 222 | 1.0 | 5.0 | 0.00 | 0.00 | 0.00 | 79 | 1012.1 |
| 20260506103504 | 64 | 210 | 1.0 | 7.0 | 0.00 | 0.00 | 0.00 | 79 | 1012.3 |
| 20260506103004 | 64 | 208 | 2.0 | 7.0 | 0.00 | 0.00 | 0.00 | 79 | 1012.4 |
| 20260506102505 | 64 | 250 | 1.0 | 6.0 | 0.00 | 0.00 | 0.00 | 79 | 1012.4 |
| 20260506102004 | 64 | 204 | 2.0 | 6.0 | 0.00 | 0.00 | 0.00 | 79 | 1012.3 |
| 20260506101504 | 64 | 213 | 1.0 | 7.0 | 0.00 | 0.00 | 0.00 | 78 | 1012.3 |
| 20260506101004 | 64 | 172 | 1.0 | 7.0 | 0.00 | 0.00 | 0.00 | 78 | 1012.3 |
| 20260506100004 | 64 | 220 | 1.0 | 9.0 | 0.00 | 0.00 | 0.00 | 78 | 1011.9 |
| 20260506095505 | 64 | 255 | 2.0 | 9.0 | 0.00 | 0.00 | 0.00 | 78 | 1012.0 |
| 20260506095004 | 64 | 217 | 1.0 | 8.0 | 0.00 | 0.00 | 0.00 | 78 | 1012.0 |
| 20260506094005 | 64 | 176 | 2.0 | 6.0 | 0.00 | 0.00 | 0.00 | 77 | 1012.1 |
| 20260506093504 | 64 | 209 | 2.0 | 6.0 | 0.00 | 0.00 | 0.00 | 77 | 1012.2 |
| 20260506093004 | 64 | 239 | 1.0 | 6.0 | 0.00 | 0.00 | 0.00 | 77 | 1012.2 |
| 20260506092504 | 64 | 225 | 2.0 | 6.0 | 0.00 | 0.00 | 0.00 | 77 | 1012.1 |
| 20260506091504 | 64 | 202 | 1.0 | 6.0 | 0.00 | 0.00 | 0.00 | 76 | 1012.1 |
| 20260506091004 | 64 | 254 | 2.0 | 7.0 | 0.00 | 0.00 | 0.00 | 76 | 1012.0 |
| 20260506090504 | 64 | 208 | 2.0 | 7.0 | 0.00 | 0.00 | 0.00 | 76 | 1012.0 |
| 20260506085505 | 64 | 185 | 1.0 | 7.0 | 0.00 | 0.00 | 0.00 | 76 | 1012.2 |
| 20260506085004 | 64 | 204 | 2.0 | 9.0 | 0.00 | 0.00 | 0.00 | 76 | 1012.3 |
| 20260506084005 | 64 | 214 | 2.0 | 10.0 | 0.00 | 0.00 | 0.00 | 76 | 1012.3 |
| 20260506083504 | 64 | 222 | 1.0 | 6.0 | 0.00 | 0.00 | 0.00 | 77 | 1012.2 |
| 20260506083005 | 64 | 231 | 1.0 | 12.0 | 0.00 | 0.00 | 0.00 | 77 | 1012.2 |
| 20260506082503 | 64 | 212 | 2.0 | 12.0 | 0.00 | 0.00 | 0.00 | 77 | 1012.3 |
| 20260506081504 | 64 | 171 | 2.0 | 8.0 | 0.00 | 0.00 | 0.00 | 77 | 1012.5 |
| 20260506081004 | 64 | 223 | 2.0 | 8.0 | 0.00 | 0.00 | 0.00 | 77 | 1012.4 |
| 20260506073005 | 65 | 215 | 2.0 | 9.0 | 0.00 | 0.00 | 0.00 | 79 | 1012.3 |
| 20260506072004 | 64 | 217 | 1.0 | 6.0 | 0.00 | 0.00 | 0.00 | 80 | 1012.2 |
| 20260506071504 | 64 | 224 | 2.0 | 6.0 | 0.00 | 0.00 | 0.00 | 80 | 1012.2 |
| 20260506071004 | 65 | 215 | 1.0 | 9.0 | 0.00 | 0.00 | 0.00 | 80 | 1012.2 |
| 20260506070504 | 65 | 192 | 2.0 | 9.0 | 0.00 | 0.00 | 0.00 | 80 | 1012.2 |
| 20260506062504 | 65 | 182 | 2.0 | 9.0 | 0.00 | 0.00 | 0.00 | 81 | 1012.4 |
| 20260506061504 | 65 | 229 | 1.0 | 8.0 | 0.00 | 0.00 | 0.00 | 81 | 1012.5 |
| 20260506060505 | 65 | 201 | 1.0 | 7.0 | 0.00 | 0.00 | 0.00 | 81 | 1012.7 |
| 20260506051004 | 65 | 210 | 1.0 | 6.0 | 0.00 | 0.00 | 0.00 | 81 | 1012.9 |
| 20260506050504 | 65 | 218 | 2.0 | 7.0 | 0.00 | 0.00 | 0.00 | 81 | 1012.9 |
| 20260506045004 | 65 | 218 | 1.0 | 9.0 | 0.00 | 0.00 | 0.00 | 81 | 1013.0 |
| 20260506044504 | 65 | 237 | 2.0 | 7.0 | 0.00 | 0.00 | 0.00 | 81 | 1013.1 |
| 20260506044004 | 65 | 226 | 1.0 | 5.0 | 0.00 | 0.00 | 0.00 | 81 | 1013.0 |
| 20260506043504 | 65 | 209 | 1.0 | 5.0 | 0.00 | 0.00 | 0.00 | 81 | 1013.1 |
| 20260506043004 | 65 | 195 | 2.0 | 5.0 | 0.00 | 0.00 | 0.00 | 81 | 1013.0 |
| 20260506042504 | 65 | 173 | 1.0 | 5.0 | 0.00 | 0.00 | 0.00 | 81 | 1013.0 |
| 20260506041504 | 65 | 175 | 1.0 | 6.0 | 0.00 | 0.00 | 0.00 | 80 | 1013.0 |
| 20260506041005 | 66 | 225 | 2.0 | 6.0 | 0.00 | 0.00 | 0.00 | 80 | 1013.0 |
| 20260506040504 | 66 | 232 | 1.0 | 7.0 | 0.00 | 0.00 | 0.00 | 80 | 1012.9 |
| 20260506035504 | 66 | 189 | 2.0 | 7.0 | 0.00 | 0.00 | 0.00 | 80 | 1013.0 |
| 20260506035004 | 66 | 200 | 1.0 | 6.0 | 0.00 | 0.00 | 0.00 | 79 | 1013.0 |
| 20260506034004 | 66 | 192 | 2.0 | 8.0 | 0.00 | 0.00 | 0.00 | 79 | 1013.0 |
| 20260506033504 | 66 | 218 | 1.0 | 6.0 | 0.00 | 0.00 | 0.00 | 79 | 1012.9 |
| 20260506033004 | 66 | 182 | 2.0 | 6.0 | 0.00 | 0.00 | 0.00 | 79 | 1013.0 |
| 20260506032003 | 67 | 222 | 2.0 | 5.0 | 0.00 | 0.00 | 0.00 | 78 | 1013.1 |
| 20260506031004 | 67 | 206 | 2.0 | 9.0 | 0.00 | 0.00 | 0.00 | 78 | 1013.0 |
| 20260506030504 | 67 | 217 | 1.0 | 9.0 | 0.00 | 0.00 | 0.00 | 78 | 1012.9 |
| 20260506030004 | 67 | 206 | 2.0 | 9.0 | 0.00 | 0.00 | 0.00 | 78 | 1013.0 |
| 20260506025504 | 67 | 202 | 2.0 | 10.0 | 0.00 | 0.00 | 0.00 | 78 | 1012.9 |
| 20260506025004 | 67 | 209 | 3.0 | 10.0 | 0.00 | 0.00 | 0.00 | 78 | 1013.0 |
| 20260506024504 | 67 | 226 | 2.0 | 9.0 | 0.00 | 0.00 | 0.00 | 78 | 1013.0 |
| 20260506024004 | 67 | 185 | 2.0 | 7.0 | 0.00 | 0.00 | 0.00 | 78 | 1013.0 |
| 20260506023004 | 67 | 200 | 1.0 | 13.0 | 0.00 | 0.00 | 0.00 | 77 | 1013.0 |
| 20260506022004 | 67 | 227 | 2.0 | 8.0 | 0.00 | 0.00 | 0.00 | 76 | 1013.0 |
| 20260506021505 | 67 | 209 | 2.0 | 8.0 | 0.00 | 0.00 | 0.00 | 76 | 1013.2 |
| 20260506020503 | 67 | 165 | 2.0 | 8.0 | 0.00 | 0.00 | 0.00 | 76 | 1013.0 |
| 20260506020004 | 67 | 208 | 2.0 | 9.0 | 0.00 | 0.00 | 0.00 | 76 | 1012.9 |
| 20260506015004 | 68 | 221 | 3.0 | 8.0 | 0.00 | 0.00 | 0.00 | 75 | 1012.8 |
| 20260506014004 | 68 | 219 | 2.0 | 7.0 | 0.00 | 0.00 | 0.00 | 75 | 1012.9 |
| 20260506013504 | 68 | 223 | 2.0 | 7.0 | 0.00 | 0.00 | 0.00 | 75 | 1012.7 |
| 20260506013004 | 68 | 210 | 2.0 | 8.0 | 0.00 | 0.00 | 0.00 | 75 | 1012.7 |
| 20260506012504 | 68 | 193 | 2.0 | 8.0 | 0.00 | 0.00 | 0.00 | 74 | 1012.5 |
| 20260506012004 | 68 | 193 | 2.0 | 7.0 | 0.00 | 0.00 | 0.00 | 74 | 1012.5 |
| 20260506011504 | 68 | 212 | 2.0 | 10.0 | 0.00 | 0.00 | 0.00 | 74 | 1012.3 |
| 20260506011004 | 68 | 219 | 3.0 | 10.0 | 0.00 | 0.00 | 0.00 | 74 | 1012.4 |
| 20260506010503 | 68 | 209 | 2.0 | 6.0 | 0.00 | 0.00 | 0.00 | 74 | 1012.2 |